Qasigiannguit Sermersua

KL  EN  DA
ASIAQ
Weather Now GREENLAND SURVEY
Updated [WGT/WGST] Temperature [°C] Wind [m/s] Air pressure [hPa] Relative humidity [%] Precipitation [mm]
Present Wind chill Speed Max
27.09 02:00-4,7-9,23,0 ⇐n/a93473n/a
27.09 01:00-4,8-8,62,4 ⇐n/a93476n/a
27.09 00:00-4,7-7,11,5 ⇖n/a93479n/a
26.09 23:00-5,00,01,2 ⇖n/a93483n/a
26.09 22:00-4,6-7,92,1 ⇖n/a93486n/a
26.09 21:00-4,6-7,92,1 ⇖n/a93487n/a
26.09 20:00-4,9-7,91,8 ⇖n/a93388n/a
26.09 19:00-4,0-7,32,2 ⇑n/a93388n/a
26.09 18:00-3,6-7,02,3 ⇑n/a93384n/a
26.09 17:00-3,4-6,72,2 ⇑n/a93382n/a
26.09 16:00-3,3-7,12,6 ⇑n/a93281n/a
26.09 15:00-3,8-8,13,1 ⇑n/a93281n/a
26.09 14:00-4,0-9,03,7 ⇑n/a93280n/a
26.09 13:00-4,2-9,74,3 ⇑n/a93279n/a
26.09 12:00-4,3-10,75,7 ⇑n/a93174n/a
26.09 11:00-4,2-10,55,5 ⇑n/a93167n/a
26.09 10:00-4,9-10,94,8 ⇑n/a93164n/a
26.09 09:00-4,8-10,34,2 ⇖n/a93054n/a
26.09 08:00-4,7-9,93,8 ⇑n/a93048n/a
26.09 07:00-6,4-9,92,0 ⇑n/a93052n/a
26.09 06:00-5,8-8,41,5 ⇑n/a93049n/a
26.09 05:00-4,80,01,2 ⇖n/a93045n/a
26.09 04:00-5,10,00,6 ⇖n/a93046n/a
26.09 03:00-4,6-9,23,2 ⇐n/a93041n/a
26.09 02:00-5,4-10,73,7 ⇐n/a93047n/a
Position: (64.1623,-51.3587)

[Back]